Location: Derby
(52.9213°N, 1.4761°W)
Time: 16:38:32
(UTC+01:00)

Vanguard 1 - Pass Details

Date: 25 May 2025
Orbit: 649 x 3822 km, 34.3° (Epoch: 14 June)

Event Time Altitude Azimuth Distance (km) Brightness Sun altitude
Rises 22:21:33 0° 268° (W) 6,377 14.8 -8.1°
Reaches altitude 10° 22:28:50 10° 249° (WSW) 4,588 13.7 -8.8°
Maximum altitude 22:34:12 14° 222° (SW) 3,621 12.8 -9.2°
Drops below altitude 10° 22:38:27 10° 193° (SSW) 3,442 12.5 -9.6°
Enters shadow 22:40:36 - 179° (S) 3,623 12.5 -9.8°
Sets 22:42:31 0° 169° (SSE) 3,924 - -9.9°
